Location: Angwan Shehu
(11.2514°N, 7.4613°E)
Time: 00:20:06
(UTC+00:00)

Tiros 1 - Pass Details

Date: 28 April 2021
Orbit: 630 x 664 km, 48.4° (Epoch: 06 May)

Event Time Altitude Azimuth Distance (km) Brightness Sun altitude
Rises 02:53:43 0° 211° (SSW) 2,979 - -33.0°
Reaches altitude 10° 02:56:06 10° 207° (SSW) 2,065 - -32.4°
Maximum altitude 03:00:47 57° 129° (SE) 768 - -31.4°
Exits shadow 03:02:16 39° 72° (ENE) 977 8.4 -31.1°
Drops below altitude 10° 03:05:25 10° 51° (NE) 2,047 10.6 -30.3°
Sets 03:07:47 0° 47° (NE) 2,952 11.6 -29.8°
